Track GLOBALSTAR M091 now! 10-day predictions GLOBALSTAR M091 is classified as:
1 37741U 11033C 25189.80528168 -.00000083 00000-0 11809-3 0 9997 2 37741 51.9969 207.3185 0000247 243.4773 288.3174 12.62269284645912